Preview of NWS' New Version of Forecast
This preview is not operational and should not be used for support decisions.

Regional Weather Roundup (RWR)

Issued by National Weather Service (NWS)

                            
000
ASUS42 KTBW 201017
RWRFL 
FLORIDA REGIONAL WEATHER ROUNDUP
NATIONAL WEATHER SERVICE TAMPA BAY RUSKIN FL
500 AM EST WED FEB 20 2019

NOTE: "FAIR" INDICATES FEW OR NO CLOUDS BELOW 12,000 FEET WITH NO
SIGNIFICANT WEATHER AND/OR OBSTRUCTIONS TO VISIBILITY.

FLZ001>010-012>015-112-114-115-201100-
PANHANDLE FLORIDA
  
CITY           SKY/WX    TMP DP  RH WIND       PRES   REMARKS
PENSACOLA      CLOUDY    63  61  93 SE17G23   30.02S FOG              
PENSACOLA NAS  CLOUDY    63  63 100 E18       30.01S FOG              
MILTON NAS     CLOUDY    58  58 100 E9        30.03  FOG              
CRESTVIEW      CLOUDY    57  54  89 E7        30.07R                  
DUKE FIELD     CLOUDY    59  59 100 E7        30.04S                  
VALPARAISO     CLOUDY    61  61 100 E10       30.04R                  
MARY ESTHER    CLOUDY    63  61  94 SE12G18   30.03                   
PANAMA CITY    CLOUDY    60  58  92 NE9       30.05S                  
TYNDALL AFB    CLOUDY    63  59  88 E8        30.05S                  
APALACHICOLA   CLOUDY    60  58  92 E13       30.06F FOG              

STATION/POSITION SKY/WX   TEMP    WIND        PRES    WAVE   SWELL
                          AIR SEA DIR/SP/G            HT/PER HT/PER
                          (F)     (DEG/KT/KT) (MB)    (FT/S) (FT/S)
30.1N   87.6W              65     110/ 19/ 25 1015.7S   6/ 6
29.2N   88.2W                     130/ 12/ 16 1014.6S   5/ 6   3/ 7
PANAMA CITY BEAC           62 62   90/  8/ 12 1017.8F
TOWER C                    61     100/ 18/ 21 1017.8F

$$
FLZ011-016>038-118-127-128-134-139-239-201100-
NORTH FLORIDA
  
CITY           SKY/WX    TMP DP  RH WIND       PRES   REMARKS
MARIANNA       CLOUDY    53  53 100 E9        30.08F FOG              
TALLAHASSEE    CLOUDY    56  54  93 E10       30.10F                  
PERRY          CLOUDY    56  55  94 E5        30.12F                  
LIVE OAK       CLOUDY    55  55 100 NE6       30.12F                  
CROSS CITY     CLOUDY    60  59  97 NE6       30.10F                  
LAKE CITY      CLOUDY    55  54  94 NE3       30.13F                  
GAINESVILLE    CLOUDY    64  60  87 NE6       30.14F FOG              
WILLISTON        N/A    N/A N/A N/A MISG        N/A                   
PALATKA        FOG       63  63 100 NE3       30.12S VSB 1            
MAYPORT NAS    CLOUDY    61  60  97 NW3       30.13F FOG              
JACKSONVILLE   CLOUDY    59  57  93 N3        30.12F                  
JAX NAS        CLOUDY    61  60  97 N9        30.13F                  
JAX CECIL      CLOUDY    59  57  94 CALM      30.13F                  
FERNANDINA BEA CLOUDY    60  59  99 N8        30.13F FOG              
ST AUGUSTINE   CLOUDY    62  61  96 N5        30.13F                  
PALM COAST     FOG       60  60  99 CALM      30.11F VSB 1/4          

STATION/POSITION SKY/WX   TEMP    WIND        PRES    WAVE   SWELL
                          AIR SEA DIR/SP/G            HT/PER HT/PER
                          (F)     (DEG/KT/KT) (MB)    (FT/S) (FT/S)
SHELL POINT      NOT AVBL
KEATON BEACH               57      60/ 11/ 14 1019.2F
CEDAR KEY                  67      80/ 11/ 13 1018.9F
FERNANDINA                 60 61   10/  5/  9 1021.1F
30.7N   81.3W                 58                N/A     7/ 8   2/11
MAYPORT                    60 61  330/  1/  4 1020.3F
31.4N   80.9W              65 58  100/ 16/ 25 1019.8F   9/10   5/10
ST AUGUSTINE               60 61  350/ 10/ 11 1020.0F

$$
FLZ040-043>046-052-053-057-058-063-144-201100-
INTERIOR CENTRAL FLORIDA
  
CITY           SKY/WX    TMP DP  RH WIND       PRES   REMARKS
OCALA          CLOUDY    68  67  96 E3        30.11S FOG              
LEESBURG       FAIR      68  67  96 E5        30.10F                  
SANFORD        FAIR      66  66 100 E3        30.10F FOG              
ORLANDO EXEC   FAIR      67  66  97 E6        30.10F                  
ORLANDO INTL   FAIR      69  66  90 SE6       30.10F                  
KISSIMMEE      FAIR      69  68  96 E6        30.11S                  
WINTER HAVEN   FAIR      73  68  84 SE8       30.10S                  
LAKELAND       MOCLDY    68  66  94 SE8       30.09F                  
BARTOW         CLOUDY    70  68  94 E6        30.08S                  
SEBRING        CLOUDY    69  68  96 E6        30.09S                  
OKEECHOBEE     MOCLDY    68  66  94 CALM      30.09S                  

$$
FLZ041-047-054-059-064-141-147-201100-
EAST CENTRAL FLORIDA
  
CITY           SKY/WX    TMP DP  RH WIND       PRES   REMARKS
DAYTONA BEACH  FAIR      68  68 100 CALM      30.12S                  
DELAND         FAIR      64  63  94 E3        30.11S FOG              
JFK SPACE CTR  FAIR     N/A N/A N/A SE5       30.12R                  
CAPE CANAVERAL FAIR      67  65  94 SE8       30.09F                  
PATRICK AFB    FAIR      69  69 100 SE8       30.10S                  
MELBOURNE      FAIR      72  68  87 SE9       30.10S                  
VERO BEACH     FAIR      73  69  87 SE13      30.10F                  
FT PIERCE      FAIR      73  68  84 SE14      30.09F                  
STUART         CLOUDY    75  70  83 E12       30.11F                  

STATION/POSITION SKY/WX   TEMP    WIND        PRES    WAVE   SWELL
                          AIR SEA DIR/SP/G            HT/PER HT/PER
                          (F)     (DEG/KT/KT) (MB)    (FT/S) (FT/S)
28.5N   80.2W              72     140/ 14/ 16 1019.8F   6/ 8   3/ 8
28.9N   78.5W              75 75  130/ 19/ 25 1021.5F  10/ 8   7/15
TRIDENT PIER               68 69  130/  6/  9 1020.5S
28.4N   80.5W                 66                N/A     3/ 5

$$
FLZ050-056-061-142-242-148-248-149-249-151-251-155-255-
160-260-201100-
WEST CENTRAL FLORIDA
  
CITY           SKY/WX    TMP DP  RH WIND       PRES   REMARKS
CRYSTAL RIVER  FAIR      66  66 100 E3        30.09S                  
INVERNESS      FOG       66  66 100 CALM      30.10S VSB 1/2          
BROOKSVILLE    FAIR      69  67  93 E5        30.09S                  
CLEARWATER AIR FAIR      70  68  94 SE8       30.06F                  
ST PETE CLEARW FAIR      71  66  84 SE10      30.06F                  
TAMPA INTL     FAIR      72  67  84 SE7       30.07F                  
TAMPA EXEC     FAIR      70  66  88 CALM      30.08F                  
PLANT CITY     MOCLDY    72  68  88 SE10G16   30.09F                  
MACDILL AFB    MOCLDY    70  67  89 SE9       30.06F                  
PETER O KNIGHT CLOUDY   N/A N/A N/A E6        30.07F                  
ST PETERSBURG  MOCLDY    70  68  93 SE7       30.05F                  
SARASOTA       CLOUDY    71  68  90 SE10      30.05S                  
VENICE         CLOUDY    72  70  94 E7        30.07S                  

STATION/POSITION SKY/WX   TEMP    WIND        PRES    WAVE   SWELL
                          AIR SEA DIR/SP/G            HT/PER HT/PER
                          (F)     (DEG/KT/KT) (MB)    (FT/S) (FT/S)
27.3N   84.2W                 72                N/A     3/ 7
CLEARWATER BEACH                  120/  8/ 11   N/A
MIDDLE TAMPA BAY           69     150/ 13/ 16 1018.1F
VENICE                     72 69  110/  6/  8   N/A

$$
FLZ066-069-070-075>078-162-262-165-265-201100-
SOUTHWEST FLORIDA AND KEYS
  
CITY           SKY/WX    TMP DP  RH WIND       PRES   REMARKS
PUNTA GORDA    CLOUDY    71  68  90 SE6       30.09R                  
FT MYERS       CLOUDY    73  70  90 CALM      30.06S                  
SOUTHWEST INTL CLOUDY    71  70  96 SE3       30.07S                  
NAPLES         CLOUDY    74  71  91 E5        30.06S                  
MARCO ISLAND   CLOUDY   N/A N/A N/A E3        30.07S                  
IMMOKALEE      FAIR      72  70  94 E5        30.05S                  
MARATHON       MOCLDY    80  71  74 E14G24    30.04S                  
KEY WEST NAS   FAIR      78  70  76 SE15      30.04S                  
KEY WEST INTL  FAIR      78  71  79 SE17      30.04F                  

STATION/POSITION SKY/WX   TEMP    WIND        PRES    WAVE   SWELL
                          AIR SEA DIR/SP/G            HT/PER HT/PER
                          (F)     (DEG/KT/KT) (MB)    (FT/S) (FT/S)
NAPLES                     74 73  100/  5/  6 1018.0F
26.0N   85.6W              78 80  140/ 17/ 21 1015.4F   5/ 7
DRY TORTUGAS               77     130/ 16/ 18 1016.8R
SAND KEY                   77                 1016.8F
SOMBRERO KEY               78                 1016.7F
LONG KEY                   78 78  110/ 15/ 17 1017.4F
MOLASSES REEF                     120/ 23       N/A

$$
FLZ067-068-071>074-168-172>174-201100-
SOUTHEAST FLORIDA 
  
CITY           SKY/WX    TMP DP  RH WIND       PRES   REMARKS
W PALM BEACH   MOCLDY    76  70  82 SE16G25   30.09F                  
FT LAUDER-EXEC CLOUDY    76  74  93 E13G23    30.08F                  
FT LAUDERDALE  MOCLDY    77  74  90 SE16      30.06F                  
POMPANO BEACH  LGT RAIN  76  72  87 SE12G21   30.08F FOG              
PEMBROKE PINES CLOUDY    75  71  87 E10       30.09F                  
OPA LOCKA      MOCLDY    76  72  87 SE9       30.08F                  
MIAMI          FAIR      76  73  91 E15       30.08F                  
WEST KENDALL   LGT RAIN  77  72  84 SE12      30.07F                  
HOMESTEAD      FAIR      76  71  83 E13       30.06F                  

STATION/POSITION SKY/WX   TEMP    WIND        PRES    WAVE   SWELL
                          AIR SEA DIR/SP/G            HT/PER HT/PER
                          (F)     (DEG/KT/KT) (MB)    (FT/S) (FT/S)
PORT EVERGLADES            76      90/  7/ 13 1018.5F
VIRGINIA KEY               77 78  100/ 15/ 18 1017.7F
LAKE WORTH                 77 77  130/ 19/ 22 1019.8F
FOWEY ROCKS                77 77  110/ 23/ 25 1018.7F
SETTLEMENT POINT           75     120/ 13/ 16 1019.8F

$$